Location: Newark
(34.1333°N, 7.9667°W)
Time: 10:36:25
(UTC+00:00)

DUCHIFAT 1 - Pass Details

Date: 11 June 2023
Orbit: 561 x 575 km, 98.1° (Epoch: 21 September)

Event Time Altitude Azimuth Distance (km) Brightness Sun altitude
Rises 03:45:00 0° 15° (NNE) 2,822 ? -16.6°
Reaches altitude 10° 03:47:11 10° 18° (NNE) 1,917 ? -16.3°
Maximum altitude 03:51:19 69° 101° (E) 630 ? -15.7°
Enters shadow 03:54:28 17° 183° (S) 1,509 ? -15.2°
